Date String (YYYY-MM-DD hh:mm:ss) UTC,Instrument flags,Ambient pressure (hPa),Sample flow (lpm),Bypass flow (lpm),Sample temperature (°C),Ambient temperature (°C),ASC tube jacket temperature (°C),LED temperature (°C),Box temperature (°C),Sample RH (%),Span deviation,Mass concentration (μg/m³),Mass concentration (μg/m³),Mass concentration (μg/m³)
DateTimeUTC,F1_M11,P_M11,Q1_M11,Q2_M11,T1_M11,T2_M11,T3_M11,T4_M11,T5_M11,U1_M11,ZSPAN_M11,X2_M11,X0_M11,X1_M11
2022-04-01 00:00:00,,0816.0,4.99,0.00,28.9,28.1,00.0,37.8,30.6,05.8,0000.0,0003.57,0013.15,0001.86
2022-04-01 00:01:00,,0816.0,5.00,0.00,28.8,28.1,00.0,37.8,30.6,05.8,0000.0,0003.53,0012.52,0001.89
2022-04-01 00:02:00,,0815.9,5.01,0.00,28.8,28.1,00.0,37.8,30.6,05.8,0000.0,0003.58,0012.89,0001.92
2022-04-01 00:03:00,,0815.9,4.99,0.00,28.8,28.1,00.0,37.8,30.6,05.7,0000.0,0003.62,0012.22,0001.93
2022-04-01 00:04:00,,0815.9,5.00,0.00,28.8,28.1,00.0,37.8,30.6,05.5,0000.0,0003.57,0011.91,0001.93
2022-04-01 00:05:00,,0815.9,5.01,0.00,28.8,28.1,00.0,37.8,30.6,05.4,0000.0,0003.60,0011.45,0001.90
2022-04-01 00:06:00,,0815.9,4.99,0.00,28.8,28.1,00.0,37.8,30.5,05.4,0000.0,0003.57,0011.25,0001.89
2022-04-01 00:07:00,,0815.9,4.99,0.00,28.8,28.1,00.0,37.8,30.5,05.4,0000.0,0003.55,0011.39,0001.88
2022-04-01 00:08:00,,0815.9,5.01,0.00,28.8,28.1,00.0,37.8,30.5,05.4,0000.0,0003.56,0011.12,0001.89
2022-04-01 00:09:00,,0815.9,5.01,0.00,28.8,28.0,00.0,37.8,30.5,05.5,0000.0,0003.58,0011.26,0001.88
2022-04-01 00:10:00,,0815.9,5.00,0.00,28.8,28.0,00.0,37.8,30.5,05.5,0000.0,0003.59,0011.05,0001.86
2022-04-01 00:11:00,,0815.9,5.00,0.00,28.8,28.0,00.0,37.8,30.5,05.6,0000.0,0003.57,0010.28,0001.85
2022-04-01 00:12:00,,0815.9,4.99,0.00,28.8,28.1,00.0,37.8,30.5,05.6,0000.0,0003.58,0010.48,0001.83
2022-04-01 00:13:00,,0815.9,5.01,0.00,28.8,28.1,00.0,37.8,30.5,05.4,0000.0,0003.53,0010.35,0001.81
2022-04-01 00:14:00,,0815.9,4.99,0.00,28.8,28.1,00.0,37.8,30.5,05.3,0000.0,0003.44,0010.31,0001.77
2022-04-01 00:15:00,,0815.9,5.00,0.00,28.8,28.1,00.0,37.8,30.5,05.4,0000.0,0003.44,0010.02,0001.77
2022-04-01 00:16:00,,0815.9,5.01,0.00,28.8,28.0,00.0,37.8,30.5,05.5,0000.0,0003.42,0009.86,0001.77
2022-04-01 00:17:00,,0815.9,4.99,0.00,28.8,28.0,00.0,37.8,30.5,05.6,0000.0,0003.43,0009.85,0001.76
2022-04-01 00:18:00,,0816.0,4.99,0.00,28.8,28.0,00.0,37.8,30.5,05.6,0000.0,0003.48,0009.57,0001.76
2022-04-01 00:19:00,,0816.0,4.99,0.00,28.8,28.1,00.0,37.8,30.5,05.6,0000.0,0003.45,0009.93,0001.74
2022-04-01 00:20:00,,0816.0,5.02,0.00,28.8,28.0,00.0,37.7,30.5,06.5,0000.0,0003.43,0009.74,0001.74
2022-04-01 00:21:00,,0816.0,4.99,0.00,28.8,27.9,00.0,37.7,30.5,06.7,0000.0,0003.44,0009.94,0001.73
2022-04-01 00:22:00,,0816.0,5.02,0.00,28.8,28.0,00.0,37.7,30.6,06.6,0000.0,0003.46,0010.28,0001.72
2022-04-01 00:23:00,,0816.0,5.00,0.00,28.8,28.0,00.0,37.7,30.6,06.4,0000.0,0003.46,0010.21,0001.71
2022-04-01 00:24:00,,0816.0,5.00,0.00,28.8,28.0,00.0,37.8,30.6,06.3,0000.0,0003.42,0009.71,0001.69
2022-04-01 00:25:00,,0816.0,5.00,0.00,28.8,27.9,00.0,37.7,30.6,06.2,0000.0,0003.49,0009.49,0001.71
2022-04-01 00:26:00,,0816.0,5.01,0.00,28.8,28.0,00.0,37.8,30.6,06.0,0000.0,0003.58,0009.31,0001.73
2022-04-01 00:27:00,,0816.0,5.00,0.00,28.8,28.0,00.0,37.8,30.6,05.9,0000.0,0003.57,0009.74,0001.73
2022-04-01 00:28:00,,0816.0,4.99,0.00,28.8,28.0,00.0,37.8,30.6,05.9,0000.0,0003.60,0010.00,0001.72
2022-04-01 00:29:00,,0816.0,5.00,0.00,28.8,28.1,00.0,37.8,30.6,05.9,0000.0,0003.62,0010.22,0001.74
2022-04-01 00:30:00,,0816.0,5.00,0.00,28.8,28.1,00.0,37.8,30.6,06.0,0000.0,0003.63,0009.70,0001.75
2022-04-01 00:31:00,,0816.0,5.00,0.00,28.8,28.1,00.0,37.8,30.6,06.0,0000.0,0003.64,0009.52,0001.75
2022-04-01 00:32:00,,0816.0,4.99,0.00,28.8,28.1,00.0,37.8,30.6,06.0,0000.0,0003.68,0010.45,0001.76
2022-04-01 00:33:00,,0816.1,5.00,0.00,28.8,28.1,00.0,37.8,30.6,06.0,0000.0,0003.65,0010.64,0001.77
2022-04-01 00:34:00,,0816.0,4.99,0.00,28.9,28.1,00.0,37.8,30.6,06.1,0000.0,0003.65,0011.24,0001.76
2022-04-01 00:35:00,,0816.0,5.02,0.00,28.9,28.1,00.0,37.8,30.6,06.3,0000.0,0003.71,0011.34,0001.77
2022-04-01 00:36:00,,0816.0,4.99,0.00,28.9,28.1,00.0,37.8,30.6,06.1,0000.0,0003.76,0011.48,0001.77
2022-04-01 00:37:00,,0816.0,5.00,0.00,28.9,28.1,00.0,37.8,30.6,06.1,0000.0,0003.67,0011.31,0001.75
2022-04-01 00:38:00,,0816.0,5.01,0.00,28.9,28.1,00.0,37.8,30.6,06.2,0000.0,0003.63,0010.81,0001.74
2022-04-01 00:39:00,,0816.0,4.99,0.00,28.9,28.1,00.0,37.8,30.7,06.2,0000.0,0003.58,0010.59,0001.74
2022-04-01 00:40:00,,0816.0,4.99,0.00,28.9,28.1,00.0,37.8,30.7,06.3,0000.0,0003.53,0010.51,0001.71
2022-04-01 00:41:00,,0816.0,5.00,0.00,28.9,28.1,00.0,37.8,30.7,06.3,0000.0,0003.53,0010.69,0001.71
2022-04-01 00:42:00,,0816.0,5.00,0.00,28.9,28.1,00.0,37.8,30.7,06.3,0000.0,0003.56,0011.77,0001.71
2022-04-01 00:43:00,,0816.0,4.99,0.00,28.9,28.1,00.0,37.8,30.7,06.3,0000.0,0003.56,0011.50,0001.69
2022-04-01 00:44:00,,0816.0,5.01,0.00,28.9,28.1,00.0,37.8,30.7,06.3,0000.0,0003.60,0011.20,0001.70
2022-04-01 00:45:00,,0816.0,4.99,0.00,28.9,28.1,00.0,37.8,30.7,06.5,0000.0,0003.64,0011.06,0001.70
2022-04-01 00:46:00,,0816.0,5.00,0.00,28.9,28.2,00.0,37.8,30.6,06.5,0000.0,0003.59,0010.99,0001.68
2022-04-01 00:47:00,,0816.0,5.00,0.00,28.9,28.2,00.0,37.8,30.6,06.6,0000.0,0003.54,0010.91,0001.67
2022-04-01 00:48:00,,0816.0,5.01,0.00,28.9,28.1,00.0,37.8,30.7,06.6,0000.0,0003.62,0011.15,0001.68
2022-04-01 00:49:00,,0816.0,5.00,0.00,28.9,28.1,00.0,37.8,30.7,06.5,0000.0,0003.69,0011.42,0001.67
2022-04-01 00:50:00,,0816.0,4.99,0.00,28.9,28.1,00.0,37.8,30.7,06.4,0000.0,0003.74,0012.75,0001.67
2022-04-01 00:51:00,,0816.0,5.01,0.00,28.9,28.2,00.0,37.8,30.7,06.4,0000.0,0003.77,0012.94,0001.67
2022-04-01 00:52:00,,0816.0,4.99,0.00,28.9,28.2,00.0,37.8,30.7,06.4,0000.0,0003.75,0012.81,0001.65
2022-04-01 00:53:00,,0816.0,4.99,0.00,28.9,28.2,00.0,37.8,30.7,06.4,0000.0,0003.69,0012.42,0001.64
2022-04-01 00:54:00,,0816.0,5.02,0.00,28.9,28.2,00.0,37.8,30.7,06.4,0000.0,0003.64,0012.64,0001.64
2022-04-01 00:55:00,,0816.0,4.99,0.00,28.9,28.2,00.0,37.8,30.7,06.3,0000.0,0003.60,0012.65,0001.62
2022-04-01 00:56:00,,0816.0,4.99,0.00,28.9,28.2,00.0,37.8,30.7,06.3,0000.0,0003.54,0012.86,0001.60
2022-04-01 00:57:00,,0816.0,5.00,0.00,29.0,28.2,00.0,37.8,30.7,06.2,0000.0,0003.52,0013.14,0001.60
2022-04-01 00:58:00,,0816.0,5.01,0.00,29.0,28.2,00.0,37.9,30.7,06.3,0000.0,0003.50,0013.10,0001.58
2022-04-01 00:59:00,,0816.0,4.99,0.00,29.0,28.2,00.0,37.8,30.7,06.3,0000.0,0003.40,0012.78,0001.56
